Clemson, SC

5:58 AM EST on February 12, 2016 (GMT -0500)
Oconee County Regional

Weather History for KCEU - April, 2013

Change the Weather History Date:

Monday, April 1, 2013

  Actual Average (WUND) Record (WUND)
Temperature  
Mean Temperature 64 °F -  
Max Temperature 75 °F - - (-1)
Min Temperature 55 °F - - (-1)
Degree Days  
Heating Degree Days 1    
Growing Degree Days 14 (Base 50)    
Moisture  
Dew Point 44 °F    
Average Humidity 59    
Maximum Humidity 94    
Minimum Humidity 23    
Precipitation  
Precipitation 0.00 in - - ()
Sea Level Pressure  
Sea Level Pressure 29.92 in    
Wind  
Wind Speed 6 mph (WNW)    
Max Wind Speed 15 mph    
Max Gust Speed 24 mph    
Visibility 8 miles    
Events Fog , Rain    
Averages and records for this station are not official NWS values.
T = Trace of Precipitation, MM = Missing Value Source: NWS Daily Summary

Daily Weather History Graph

Daily Weather History Graph

Search for Another Location

Airport or City:

Trip Planner

Search our weather history database for the weather conditions in past years. The results will help you decide how hot, cold, wet, or windy it might be!

Date:

Astronomy

Apr. 01, 2013 Rise Set
Actual Time 7:18 AM EDT 7:52 PM EDT
Civil Twilight 6:52 AM EDT 8:18 PM EDT
Nautical Twilight 6:23 AM EDT 8:48 PM EDT
Astronomical Twilight 5:52 AM EDT 9:18 PM EDT
Moon 12:49 AM EDT (4/1) 11:14 AM EDT (4/1)
Length of Visible Light 13h 25m
Length of Day
12h 34m
Waning Gibbous, 67% of the Moon is Illuminated
Apr 1
Waning Gibbous
Apr 3
Last Quarter
Apr 10
New
Apr 18
First Quarter
Apr 25
Full

Hourly Weather History & Observations

Time (EDT) Temp. Dew Point Humidity Pressure Visibility Wind Dir Wind Speed Gust Speed Precip Events Conditions
1:54 AM 60.1 °F 54.0 °F 80% 29.84 in 10.0 mi SW 4.6 mph - 0.00 in   Overcast
2:54 AM 60.1 °F 54.0 °F 80% 29.84 in 10.0 mi SW 5.8 mph - 0.00 in Rain Light Rain
4:54 AM 59.0 °F 54.0 °F 83% 29.85 in 10.0 mi WSW 6.9 mph - N/A   Mostly Cloudy
5:54 AM 57.9 °F 54.0 °F 87% 29.86 in 10.0 mi West 4.6 mph - N/A   Overcast
6:42 AM 57.2 °F 53.6 °F 88% 29.89 in 9.0 mi NNW 4.6 mph - N/A   Overcast
6:54 AM 57.0 °F 53.1 °F 87% 29.88 in 8.0 mi NNW 4.6 mph - N/A   Overcast
7:28 AM 57.2 °F 53.6 °F 88% 29.90 in 6.0 mi Calm Calm - N/A   Scattered Clouds
7:54 AM 55.9 °F 52.0 °F 87% 29.91 in 5.0 mi NNW 4.6 mph - N/A   Partly Cloudy
8:03 AM 55.4 °F 53.6 °F 94% 29.92 in 1.8 mi NNW 3.5 mph - N/A   Mostly Cloudy
8:14 AM 55.4 °F 53.6 °F 94% 29.93 in 0.2 mi NNW 4.6 mph - N/A Fog Fog
8:35 AM 55.4 °F 53.6 °F 94% 29.94 in 0.5 mi NNW 4.6 mph - N/A Fog Fog
8:42 AM 55.4 °F 53.6 °F 94% 29.94 in 3.0 mi NNW 3.5 mph - N/A   Mostly Cloudy
9:54 AM 63.0 °F 46.9 °F 56% 29.93 in 10.0 mi Calm Calm - N/A   Clear
10:54 AM 64.9 °F 48.0 °F 54% 29.94 in 10.0 mi Calm Calm - N/A   Clear
11:54 AM 68.0 °F 37.9 °F 33% 29.95 in 10.0 mi NW 3.5 mph - N/A   Clear
12:54 PM 70.0 °F 35.1 °F 28% 29.93 in 10.0 mi Calm Calm - N/A   Clear
1:54 PM 72.0 °F 33.1 °F 24% 29.92 in 10.0 mi Variable 6.9 mph 19.6 mph N/A   Clear
2:54 PM 73.9 °F 34.0 °F 23% 29.90 in 10.0 mi West 6.9 mph 18.4 mph N/A   Clear
4:54 PM 71.1 °F 37.0 °F 29% 29.91 in 10.0 mi WNW 8.1 mph 21.9 mph N/A   Clear
5:54 PM 72.0 °F 37.0 °F 28% 29.91 in 10.0 mi WNW 13.8 mph 24.2 mph N/A   Partly Cloudy
6:54 PM 69.1 °F 36.0 °F 30% 29.93 in 10.0 mi West 15.0 mph - N/A   Clear
7:54 PM 66.0 °F 34.0 °F 30% 29.93 in 10.0 mi West 15.0 mph 20.7 mph N/A   Clear
8:54 PM 64.9 °F 33.1 °F 31% 29.94 in 10.0 mi WNW 15.0 mph 21.9 mph N/A   Clear
9:54 PM 63.0 °F 30.9 °F 30% 29.97 in 10.0 mi WNW 12.7 mph 21.9 mph N/A   Clear
10:54 PM 60.1 °F 33.1 °F 36% 29.99 in 10.0 mi West 6.9 mph - N/A   Clear
11:54 PM 59.0 °F 33.1 °F 38% 29.99 in 10.0 mi WNW 8.1 mph - N/A   Clear